AO-85 (40967 NORAD) Tracking and Keplerian Element Data

This shows tracking and keplerian element data for the satellite.

Feedback or suggestion? Click here.




ElementValue
Catalog40967
NameAO-85
Epoch Orbit8311
Epoch Day320.38482594
Epoch Year2022
RAAN329.4496
Inclination64.7757
Eccentricity0.0174628
Argument of Perigee149.7513
Mean Anonmoly211.3766
Mean Motion14.78155467
Decay Rate1.77E-05
L11 40967U 15058D 22320.38482594 .00001770 00000-0 20695-3 0 5353
L22 40967 64.7757 329.4496 0174628 149.7513 211.3766 14.78155467 83116



Live tracking and technical data element details for AO-85 (NORAD 40967). AO-85 can be tracked NOW for your location showing map with azimuth and elevation plus other details from your city location.







IsCatalogInMostPopularTable: catalog: 40967, numindb: 721
Update: records affected: 1



GetName: 40967 AO-85

Hit Count: updated at: Fri, 02 Dec 2022 12:25:18 GMT